FLOCK 3P-42 (42008 NORAD) Tracking and Keplerian Element Data

This shows tracking and keplerian element data for the satellite.

Feedback or suggestion? Click here.




ElementValue
Catalog42008
NameFLOCK 3P-42
Epoch Orbit17715
Epoch Day114.66711957
Epoch Year2020
RAAN183.1281
Inclination97.3679
Eccentricity0.0008918
Argument of Perigee139.2837
Mean Anonmoly220.907
Mean Motion15.26348311
Decay Rate2.793E-05
L11 42008U 17008BN 20114.66711957 .00002793 00000-0 11022-3 0 9990
L22 42008 97.3679 183.1281 0008918 139.2837 220.9070 15.26348311177155



Live tracking and technical data element details for FLOCK 3P-42 (NORAD 42008). FLOCK 3P-42 can be tracked NOW for your location showing map with azimuth and elevation plus other details from your city location.







IsCatalogInMostPopularTable: catalog: 42008, numindb: 527
Update: records affected: 1



GetName: 42008 FLOCK 3P-42

Hit Count: updated at: Sat, 07 Mar 2026 05:40:34 GMT